owner,sensor,date,latitude,longitude,relative_humidity,qcFlag 
COMPS,ioos:station:USF.COMPS:C12:1,2016-12-01T00:05:00Z,27.4980,-83.7220,98.84,1111122 
COMPS,ioos:station:USF.COMPS:C12:1,2016-12-01T00:35:00Z,27.4980,-83.7220,99.04,1111122 
COMPS,ioos:station:USF.COMPS:C12:1,2016-12-01T01:05:00Z,27.4980,-83.7220,99.16,1111122 
COMPS,ioos:station:USF.COMPS:C12:1,2016-12-01T01:35:00Z,27.4980,-83.7220,99.33,1111122 
COMPS,ioos:station:USF.COMPS:C12:1,2016-12-01T02:05:00Z,27.4980,-83.7220,99.4,1111122 
COMPS,ioos:station:USF.COMPS:C12:1,2016-12-01T02:35:00Z,27.4980,-83.7220,99.37,1111122 
COMPS,ioos:station:USF.COMPS:C12:1,2016-12-01T03:05:00Z,27.4980,-83.7220,99.53,1111122 
COMPS,ioos:station:USF.COMPS:C12:1,2016-12-01T03:35:00Z,27.4980,-83.7220,99.58,1111122 
COMPS,ioos:station:USF.COMPS:C12:1,2016-12-01T04:05:00Z,27.4980,-83.7220,99.55,1111122 
COMPS,ioos:station:USF.COMPS:C12:1,2016-12-01T04:35:00Z,27.4980,-83.7220,99.37,1111122 
COMPS,ioos:station:USF.COMPS:C12:1,2016-12-01T05:05:00Z,27.4980,-83.7220,99.49,1111122 
COMPS,ioos:station:USF.COMPS:C12:1,2016-12-01T05:35:00Z,27.4980,-83.7220,99.25,1111122 
COMPS,ioos:station:USF.COMPS:C12:1,2016-12-01T06:05:00Z,27.4980,-83.7220,99.18,1111122 
COMPS,ioos:station:USF.COMPS:C12:1,2016-12-01T06:35:00Z,27.4980,-83.7220,99.16,1111122 
COMPS,ioos:station:USF.COMPS:C12:1,2016-12-01T07:05:00Z,27.4980,-83.7220,99.03,1111122 
COMPS,ioos:station:USF.COMPS:C12:1,2016-12-01T07:35:00Z,27.4980,-83.7220,98.86,1111122 
COMPS,ioos:station:USF.COMPS:C12:1,2016-12-01T08:05:00Z,27.4980,-83.7220,98.84,1111122 
COMPS,ioos:station:USF.COMPS:C12:1,2016-12-01T08:35:00Z,27.4980,-83.7220,98.94,1111122 
COMPS,ioos:station:USF.COMPS:C12:1,2016-12-01T09:05:00Z,27.4980,-83.7220,99.05,1111122 
COMPS,ioos:station:USF.COMPS:C12:1,2016-12-01T09:35:00Z,27.4980,-83.7220,99.12,1111122 
COMPS,ioos:station:USF.COMPS:C12:1,2016-12-01T10:05:00Z,27.4980,-83.7220,99.2,1111122 
COMPS,ioos:station:USF.COMPS:C12:1,2016-12-01T10:35:00Z,27.4980,-83.7220,99.16,1111122 
COMPS,ioos:station:USF.COMPS:C12:1,2016-12-01T11:05:00Z,27.4980,-83.7220,99.13,1111122 
COMPS,ioos:station:USF.COMPS:C12:1,2016-12-01T11:35:00Z,27.4980,-83.7220,99.38,1111122 
COMPS,ioos:station:USF.COMPS:C12:1,2016-12-01T12:05:00Z,27.4980,-83.7220,99.61,1111122 
COMPS,ioos:station:USF.COMPS:C12:1,2016-12-01T12:35:00Z,27.4980,-83.7220,99.75,1111122 
COMPS,ioos:station:USF.COMPS:C12:1,2016-12-01T13:05:00Z,27.4980,-83.7220,99.63,1111122 
COMPS,ioos:station:USF.COMPS:C12:1,2016-12-01T13:35:00Z,27.4980,-83.7220,99.5,1111122 
COMPS,ioos:station:USF.COMPS:C12:1,2016-12-01T14:05:00Z,27.4980,-83.7220,98.37,1111122 
COMPS,ioos:station:USF.COMPS:C12:1,2016-12-01T14:35:00Z,27.4980,-83.7220,96.85,1111122 
COMPS,ioos:station:USF.COMPS:C12:1,2016-12-01T15:05:00Z,27.4980,-83.7220,96.74,1111122 
COMPS,ioos:station:USF.COMPS:C12:1,2016-12-01T15:35:00Z,27.4980,-83.7220,94.12,1111122 
COMPS,ioos:station:USF.COMPS:C12:1,2016-12-01T16:05:00Z,27.4980,-83.7220,91.98,1111122 
COMPS,ioos:station:USF.COMPS:C12:1,2016-12-01T16:35:00Z,27.4980,-83.7220,91.23,1111122 
COMPS,ioos:station:USF.COMPS:C12:1,2016-12-01T17:05:00Z,27.4980,-83.7220,91.98,1111122 
COMPS,ioos:station:USF.COMPS:C12:1,2016-12-01T17:35:00Z,27.4980,-83.7220,91.88,1111122 
COMPS,ioos:station:USF.COMPS:C12:1,2016-12-01T18:05:00Z,27.4980,-83.7220,90.87,1111122 
COMPS,ioos:station:USF.COMPS:C12:1,2016-12-01T18:35:00Z,27.4980,-83.7220,90.21,1111122 
COMPS,ioos:station:USF.COMPS:C12:1,2016-12-01T19:05:00Z,27.4980,-83.7220,90.75,1111122 
COMPS,ioos:station:USF.COMPS:C12:1,2016-12-01T19:35:00Z,27.4980,-83.7220,90.23,1111122 
COMPS,ioos:station:USF.COMPS:C12:1,2016-12-01T20:05:00Z,27.4980,-83.7220,88.32,1111122 
COMPS,ioos:station:USF.COMPS:C12:1,2016-12-01T20:35:00Z,27.4980,-83.7220,88.08,1111122 
COMPS,ioos:station:USF.COMPS:C12:1,2016-12-01T21:05:00Z,27.4980,-83.7220,84.88,1111122 
COMPS,ioos:station:USF.COMPS:C12:1,2016-12-01T21:35:00Z,27.4980,-83.7220,83.15,1111122 
COMPS,ioos:station:USF.COMPS:C12:1,2016-12-01T22:05:00Z,27.4980,-83.7220,82.0,1111122 
COMPS,ioos:station:USF.COMPS:C12:1,2016-12-01T22:35:00Z,27.4980,-83.7220,81.3,1111122 
COMPS,ioos:station:USF.COMPS:C12:1,2016-12-01T23:05:00Z,27.4980,-83.7220,82.75,1111122 
COMPS,ioos:station:USF.COMPS:C12:1,2016-12-01T23:35:00Z,27.4980,-83.7220,75.57,1111122 
COMPS,ioos:station:USF.COMPS:C12:1,2016-12-02T00:05:00Z,27.4980,-83.7220,77.36,1111122 
COMPS,ioos:station:USF.COMPS:C12:1,2016-12-02T00:35:00Z,27.4980,-83.7220,77.29,1111122 
COMPS,ioos:station:USF.COMPS:C12:1,2016-12-02T01:05:00Z,27.4980,-83.7220,81.53,1111122 
COMPS,ioos:station:USF.COMPS:C12:1,2016-12-02T01:35:00Z,27.4980,-83.7220,82.82,1111122 
COMPS,ioos:station:USF.COMPS:C12:1,2016-12-02T02:05:00Z,27.4980,-83.7220,82.67,1111122 
COMPS,ioos:station:USF.COMPS:C12:1,2016-12-02T02:35:00Z,27.4980,-83.7220,78.28,1111122 
COMPS,ioos:station:USF.COMPS:C12:1,2016-12-02T03:05:00Z,27.4980,-83.7220,75.58,1111122 
COMPS,ioos:station:USF.COMPS:C12:1,2016-12-02T03:35:00Z,27.4980,-83.7220,70.47,1111122 
COMPS,ioos:station:USF.COMPS:C12:1,2016-12-02T04:05:00Z,27.4980,-83.7220,64.09,1111122 
COMPS,ioos:station:USF.COMPS:C12:1,2016-12-02T04:35:00Z,27.4980,-83.7220,61.13,1111122 
COMPS,ioos:station:USF.COMPS:C12:1,2016-12-02T05:05:00Z,27.4980,-83.7220,57.1,1111122 
COMPS,ioos:station:USF.COMPS:C12:1,2016-12-02T05:35:00Z,27.4980,-83.7220,59.25,1111122 
COMPS,ioos:station:USF.COMPS:C12:1,2016-12-02T06:05:00Z,27.4980,-83.7220,62.1,1111122 
COMPS,ioos:station:USF.COMPS:C12:1,2016-12-02T06:35:00Z,27.4980,-83.7220,64.27,1111122 
COMPS,ioos:station:USF.COMPS:C12:1,2016-12-02T07:05:00Z,27.4980,-83.7220,66.11,1111122 
COMPS,ioos:station:USF.COMPS:C12:1,2016-12-02T07:35:00Z,27.4980,-83.7220,66.9,1111122 
COMPS,ioos:station:USF.COMPS:C12:1,2016-12-02T08:05:00Z,27.4980,-83.7220,69.75,1111122 
COMPS,ioos:station:USF.COMPS:C12:1,2016-12-02T08:35:00Z,27.4980,-83.7220,68.86,1111122 
COMPS,ioos:station:USF.COMPS:C12:1,2016-12-02T09:05:00Z,27.4980,-83.7220,69.21,1111122 
COMPS,ioos:station:USF.COMPS:C12:1,2016-12-02T09:35:00Z,27.4980,-83.7220,70.16,1111122 
COMPS,ioos:station:USF.COMPS:C12:1,2016-12-02T10:05:00Z,27.4980,-83.7220,68.88,1111122 
COMPS,ioos:station:USF.COMPS:C12:1,2016-12-02T10:35:00Z,27.4980,-83.7220,69.5,1111122 
COMPS,ioos:station:USF.COMPS:C12:1,2016-12-02T11:05:00Z,27.4980,-83.7220,69.93,1111122 
COMPS,ioos:station:USF.COMPS:C12:1,2016-12-02T11:35:00Z,27.4980,-83.7220,70.84,1111122 
COMPS,ioos:station:USF.COMPS:C12:1,2016-12-02T12:05:00Z,27.4980,-83.7220,73.17,1111122 
COMPS,ioos:station:USF.COMPS:C12:1,2016-12-02T12:35:00Z,27.4980,-83.7220,72.64,1111122 
COMPS,ioos:station:USF.COMPS:C12:1,2016-12-02T13:05:00Z,27.4980,-83.7220,72.94,1111122 
COMPS,ioos:station:USF.COMPS:C12:1,2016-12-02T13:35:00Z,27.4980,-83.7220,71.59,1111122 
COMPS,ioos:station:USF.COMPS:C12:1,2016-12-02T14:05:00Z,27.4980,-83.7220,74.24,1111122 
COMPS,ioos:station:USF.COMPS:C12:1,2016-12-02T14:35:00Z,27.4980,-83.7220,72.99,1111122 
COMPS,ioos:station:USF.COMPS:C12:1,2016-12-02T15:05:00Z,27.4980,-83.7220,71.48,1111122 
COMPS,ioos:station:USF.COMPS:C12:1,2016-12-02T15:35:00Z,27.4980,-83.7220,71.68,1111122 
COMPS,ioos:station:USF.COMPS:C12:1,2016-12-02T16:05:00Z,27.4980,-83.7220,72.11,1111122 
COMPS,ioos:station:USF.COMPS:C12:1,2016-12-02T16:35:00Z,27.4980,-83.7220,70.09,1111122 
COMPS,ioos:station:USF.COMPS:C12:1,2016-12-02T17:05:00Z,27.4980,-83.7220,72.62,1111122 
COMPS,ioos:station:USF.COMPS:C12:1,2016-12-02T17:35:00Z,27.4980,-83.7220,71.57,1111122 
COMPS,ioos:station:USF.COMPS:C12:1,2016-12-02T18:05:00Z,27.4980,-83.7220,70.8,1111122 
COMPS,ioos:station:USF.COMPS:C12:1,2016-12-02T18:35:00Z,27.4980,-83.7220,71.36,1111122 
COMPS,ioos:station:USF.COMPS:C12:1,2016-12-02T19:05:00Z,27.4980,-83.7220,71.0,1111122 
COMPS,ioos:station:USF.COMPS:C12:1,2016-12-02T19:35:00Z,27.4980,-83.7220,70.63,1111122 
COMPS,ioos:station:USF.COMPS:C12:1,2016-12-02T20:05:00Z,27.4980,-83.7220,69.22,1111122 
COMPS,ioos:station:USF.COMPS:C12:1,2016-12-02T20:35:00Z,27.4980,-83.7220,68.79,1111122 
COMPS,ioos:station:USF.COMPS:C12:1,2016-12-02T21:05:00Z,27.4980,-83.7220,66.58,1111122 
COMPS,ioos:station:USF.COMPS:C12:1,2016-12-02T21:35:00Z,27.4980,-83.7220,62.98,1111122 
COMPS,ioos:station:USF.COMPS:C12:1,2016-12-02T22:05:00Z,27.4980,-83.7220,60.7,1111122 
COMPS,ioos:station:USF.COMPS:C12:1,2016-12-02T22:35:00Z,27.4980,-83.7220,57.48,1111122 
COMPS,ioos:station:USF.COMPS:C12:1,2016-12-02T23:05:00Z,27.4980,-83.7220,51.29,1111122 
COMPS,ioos:station:USF.COMPS:C12:1,2016-12-02T23:35:00Z,27.4980,-83.7220,55.74,1111122 
COMPS,ioos:station:USF.COMPS:C12:1,2016-12-03T00:05:00Z,27.4980,-83.7220,57.66,1111122 
COMPS,ioos:station:USF.COMPS:C12:1,2016-12-03T00:35:00Z,27.4980,-83.7220,60.79,1111122 
COMPS,ioos:station:USF.COMPS:C12:1,2016-12-03T01:05:00Z,27.4980,-83.7220,64.55,1111122 
COMPS,ioos:station:USF.COMPS:C12:1,2016-12-03T01:35:00Z,27.4980,-83.7220,65.48,1111122 
COMPS,ioos:station:USF.COMPS:C12:1,2016-12-03T02:05:00Z,27.4980,-83.7220,61.14,1111122 
COMPS,ioos:station:USF.COMPS:C12:1,2016-12-03T02:35:00Z,27.4980,-83.7220,61.76,1111122 
COMPS,ioos:station:USF.COMPS:C12:1,2016-12-03T03:05:00Z,27.4980,-83.7220,59.12,1111122 
COMPS,ioos:station:USF.COMPS:C12:1,2016-12-03T03:35:00Z,27.4980,-83.7220,59.74,1111122 
COMPS,ioos:station:USF.COMPS:C12:1,2016-12-03T04:05:00Z,27.4980,-83.7220,57.22,1111122 
COMPS,ioos:station:USF.COMPS:C12:1,2016-12-03T04:35:00Z,27.4980,-83.7220,59.77,1111122 
COMPS,ioos:station:USF.COMPS:C12:1,2016-12-03T05:05:00Z,27.4980,-83.7220,59.07,1111122 
COMPS,ioos:station:USF.COMPS:C12:1,2016-12-03T05:35:00Z,27.4980,-83.7220,60.99,1111122 
COMPS,ioos:station:USF.COMPS:C12:1,2016-12-03T06:05:00Z,27.4980,-83.7220,61.95,1111122 
COMPS,ioos:station:USF.COMPS:C12:1,2016-12-03T06:35:00Z,27.4980,-83.7220,62.5,1111122 
COMPS,ioos:station:USF.COMPS:C12:1,2016-12-03T07:05:00Z,27.4980,-83.7220,59.69,1111122 
COMPS,ioos:station:USF.COMPS:C12:1,2016-12-03T07:35:00Z,27.4980,-83.7220,62.12,1111122 
COMPS,ioos:station:USF.COMPS:C12:1,2016-12-03T08:05:00Z,27.4980,-83.7220,58.28,1111122 
COMPS,ioos:station:USF.COMPS:C12:1,2016-12-03T08:35:00Z,27.4980,-83.7220,57.29,1111122 
COMPS,ioos:station:USF.COMPS:C12:1,2016-12-03T09:05:00Z,27.4980,-83.7220,57.83,1111122 
COMPS,ioos:station:USF.COMPS:C12:1,2016-12-03T09:35:00Z,27.4980,-83.7220,60.08,1111122 
COMPS,ioos:station:USF.COMPS:C12:1,2016-12-03T10:05:00Z,27.4980,-83.7220,70.79,1111122 
COMPS,ioos:station:USF.COMPS:C12:1,2016-12-03T10:35:00Z,27.4980,-83.7220,60.47,1111122 
COMPS,ioos:station:USF.COMPS:C12:1,2016-12-03T11:05:00Z,27.4980,-83.7220,62.55,1111122 
COMPS,ioos:station:USF.COMPS:C12:1,2016-12-03T11:35:00Z,27.4980,-83.7220,62.25,1111122 
COMPS,ioos:station:USF.COMPS:C12:1,2016-12-03T12:05:00Z,27.4980,-83.7220,70.8,1111122 
COMPS,ioos:station:USF.COMPS:C12:1,2016-12-03T12:35:00Z,27.4980,-83.7220,72.98,1111122 
COMPS,ioos:station:USF.COMPS:C12:1,2016-12-03T13:05:00Z,27.4980,-83.7220,74.35,1111122 
COMPS,ioos:station:USF.COMPS:C12:1,2016-12-03T13:35:00Z,27.4980,-83.7220,76.72,1111122 
COMPS,ioos:station:USF.COMPS:C12:1,2016-12-03T14:05:00Z,27.4980,-83.7220,78.03,1111122 
COMPS,ioos:station:USF.COMPS:C12:1,2016-12-03T14:35:00Z,27.4980,-83.7220,79.01,1111122 
COMPS,ioos:station:USF.COMPS:C12:1,2016-12-03T15:05:00Z,27.4980,-83.7220,80.88,1111122 
COMPS,ioos:station:USF.COMPS:C12:1,2016-12-03T15:35:00Z,27.4980,-83.7220,82.07,1111122 
COMPS,ioos:station:USF.COMPS:C12:1,2016-12-03T16:05:00Z,27.4980,-83.7220,83.49,1111122 
COMPS,ioos:station:USF.COMPS:C12:1,2016-12-03T16:35:00Z,27.4980,-83.7220,83.7,1111122 
COMPS,ioos:station:USF.COMPS:C12:1,2016-12-03T17:05:00Z,27.4980,-83.7220,83.42,1111122 
COMPS,ioos:station:USF.COMPS:C12:1,2016-12-03T17:35:00Z,27.4980,-83.7220,82.83,1111122 
COMPS,ioos:station:USF.COMPS:C12:1,2016-12-03T18:05:00Z,27.4980,-83.7220,82.63,1111122 
COMPS,ioos:station:USF.COMPS:C12:1,2016-12-03T18:35:00Z,27.4980,-83.7220,82.33,1111122 
COMPS,ioos:station:USF.COMPS:C12:1,2016-12-03T19:05:00Z,27.4980,-83.7220,81.7,1111122 
COMPS,ioos:station:USF.COMPS:C12:1,2016-12-03T19:35:00Z,27.4980,-83.7220,81.05,1111122 
COMPS,ioos:station:USF.COMPS:C12:1,2016-12-03T20:05:00Z,27.4980,-83.7220,80.2,1111122 
COMPS,ioos:station:USF.COMPS:C12:1,2016-12-03T20:35:00Z,27.4980,-83.7220,79.24,1111122 
COMPS,ioos:station:USF.COMPS:C12:1,2016-12-03T21:05:00Z,27.4980,-83.7220,77.88,1111122 
COMPS,ioos:station:USF.COMPS:C12:1,2016-12-03T21:35:00Z,27.4980,-83.7220,78.14,1111122 
COMPS,ioos:station:USF.COMPS:C12:1,2016-12-03T22:05:00Z,27.4980,-83.7220,76.66,1111122 
COMPS,ioos:station:USF.COMPS:C12:1,2016-12-03T22:35:00Z,27.4980,-83.7220,76.09,1111122 
COMPS,ioos:station:USF.COMPS:C12:1,2016-12-03T23:05:00Z,27.4980,-83.7220,75.18,1111122 
COMPS,ioos:station:USF.COMPS:C12:1,2016-12-03T23:35:00Z,27.4980,-83.7220,75.12,1111122 
COMPS,ioos:station:USF.COMPS:C12:1,2016-12-04T00:05:00Z,27.4980,-83.7220,75.5,1111122 
COMPS,ioos:station:USF.COMPS:C12:1,2016-12-04T00:35:00Z,27.4980,-83.7220,76.37,1111122 
COMPS,ioos:station:USF.COMPS:C12:1,2016-12-04T01:05:00Z,27.4980,-83.7220,78.36,1111122 
COMPS,ioos:station:USF.COMPS:C12:1,2016-12-04T01:35:00Z,27.4980,-83.7220,79.64,1111122 
COMPS,ioos:station:USF.COMPS:C12:1,2016-12-04T02:05:00Z,27.4980,-83.7220,79.42,1111122 
COMPS,ioos:station:USF.COMPS:C12:1,2016-12-04T02:35:00Z,27.4980,-83.7220,78.66,1111122 
COMPS,ioos:station:USF.COMPS:C12:1,2016-12-04T03:05:00Z,27.4980,-83.7220,80.66,1111122 
COMPS,ioos:station:USF.COMPS:C12:1,2016-12-04T03:35:00Z,27.4980,-83.7220,80.16,1111122 
COMPS,ioos:station:USF.COMPS:C12:1,2016-12-04T04:05:00Z,27.4980,-83.7220,81.59,1111122 
COMPS,ioos:station:USF.COMPS:C12:1,2016-12-04T04:35:00Z,27.4980,-83.7220,83.9,1111122 
COMPS,ioos:station:USF.COMPS:C12:1,2016-12-04T05:05:00Z,27.4980,-83.7220,85.13,1111122 
COMPS,ioos:station:USF.COMPS:C12:1,2016-12-04T05:35:00Z,27.4980,-83.7220,85.25,1111122 
COMPS,ioos:station:USF.COMPS:C12:1,2016-12-04T06:05:00Z,27.4980,-83.7220,85.62,1111122 
COMPS,ioos:station:USF.COMPS:C12:1,2016-12-04T06:35:00Z,27.4980,-83.7220,85.57,1111122 
COMPS,ioos:station:USF.COMPS:C12:1,2016-12-04T07:05:00Z,27.4980,-83.7220,90.06,1111122 
COMPS,ioos:station:USF.COMPS:C12:1,2016-12-04T07:35:00Z,27.4980,-83.7220,85.49,1111122 
COMPS,ioos:station:USF.COMPS:C12:1,2016-12-04T08:05:00Z,27.4980,-83.7220,85.65,1111122 
COMPS,ioos:station:USF.COMPS:C12:1,2016-12-04T08:35:00Z,27.4980,-83.7220,85.2,1111122 
COMPS,ioos:station:USF.COMPS:C12:1,2016-12-04T09:05:00Z,27.4980,-83.7220,85.33,1111122 
COMPS,ioos:station:USF.COMPS:C12:1,2016-12-04T09:35:00Z,27.4980,-83.7220,86.32,1111122 
COMPS,ioos:station:USF.COMPS:C12:1,2016-12-04T10:05:00Z,27.4980,-83.7220,86.9,1111122 
COMPS,ioos:station:USF.COMPS:C12:1,2016-12-04T10:35:00Z,27.4980,-83.7220,87.12,1111122 
COMPS,ioos:station:USF.COMPS:C12:1,2016-12-04T11:05:00Z,27.4980,-83.7220,86.89,1111122 
COMPS,ioos:station:USF.COMPS:C12:1,2016-12-04T11:35:00Z,27.4980,-83.7220,87.29,1111122 
COMPS,ioos:station:USF.COMPS:C12:1,2016-12-04T12:05:00Z,27.4980,-83.7220,87.25,1111122 
COMPS,ioos:station:USF.COMPS:C12:1,2016-12-04T12:35:00Z,27.4980,-83.7220,87.73,1111122 
COMPS,ioos:station:USF.COMPS:C12:1,2016-12-04T13:05:00Z,27.4980,-83.7220,87.05,1111122 
COMPS,ioos:station:USF.COMPS:C12:1,2016-12-04T13:35:00Z,27.4980,-83.7220,87.27,1111122 
COMPS,ioos:station:USF.COMPS:C12:1,2016-12-04T14:05:00Z,27.4980,-83.7220,87.16,1111122 
COMPS,ioos:station:USF.COMPS:C12:1,2016-12-04T14:35:00Z,27.4980,-83.7220,87.5,1111122 
COMPS,ioos:station:USF.COMPS:C12:1,2016-12-04T15:05:00Z,27.4980,-83.7220,87.98,1111122 
COMPS,ioos:station:USF.COMPS:C12:1,2016-12-04T15:35:00Z,27.4980,-83.7220,88.51,1111122 
COMPS,ioos:station:USF.COMPS:C12:1,2016-12-04T16:05:00Z,27.4980,-83.7220,88.8,1111122 
COMPS,ioos:station:USF.COMPS:C12:1,2016-12-04T16:35:00Z,27.4980,-83.7220,89.41,1111122 
COMPS,ioos:station:USF.COMPS:C12:1,2016-12-04T17:05:00Z,27.4980,-83.7220,89.71,1111122 
COMPS,ioos:station:USF.COMPS:C12:1,2016-12-04T17:35:00Z,27.4980,-83.7220,90.24,1111122 
COMPS,ioos:station:USF.COMPS:C12:1,2016-12-04T18:05:00Z,27.4980,-83.7220,90.23,1111122 
COMPS,ioos:station:USF.COMPS:C12:1,2016-12-04T18:35:00Z,27.4980,-83.7220,90.49,1111122 
COMPS,ioos:station:USF.COMPS:C12:1,2016-12-04T19:05:00Z,27.4980,-83.7220,90.53,1111122 
COMPS,ioos:station:USF.COMPS:C12:1,2016-12-04T19:35:00Z,27.4980,-83.7220,90.63,1111122 
COMPS,ioos:station:USF.COMPS:C12:1,2016-12-04T20:05:00Z,27.4980,-83.7220,89.97,1111122 
COMPS,ioos:station:USF.COMPS:C12:1,2016-12-04T20:35:00Z,27.4980,-83.7220,89.91,1111122 
COMPS,ioos:station:USF.COMPS:C12:1,2016-12-04T21:05:00Z,27.4980,-83.7220,89.53,1111122 
COMPS,ioos:station:USF.COMPS:C12:1,2016-12-04T21:35:00Z,27.4980,-83.7220,89.83,1111122 
COMPS,ioos:station:USF.COMPS:C12:1,2016-12-04T22:05:00Z,27.4980,-83.7220,89.71,1111122 
COMPS,ioos:station:USF.COMPS:C12:1,2016-12-04T22:35:00Z,27.4980,-83.7220,90.72,1111122 
COMPS,ioos:station:USF.COMPS:C12:1,2016-12-04T23:05:00Z,27.4980,-83.7220,89.97,1111122 
COMPS,ioos:station:USF.COMPS:C12:1,2016-12-04T23:35:00Z,27.4980,-83.7220,90.07,1111122 
COMPS,ioos:station:USF.COMPS:C12:1,2016-12-05T00:05:00Z,27.4980,-83.7220,89.51,1111122 
COMPS,ioos:station:USF.COMPS:C12:1,2016-12-05T00:35:00Z,27.4980,-83.7220,89.95,1111122 
COMPS,ioos:station:USF.COMPS:C12:1,2016-12-05T01:05:00Z,27.4980,-83.7220,90.92,1111122 
COMPS,ioos:station:USF.COMPS:C12:1,2016-12-05T01:35:00Z,27.4980,-83.7220,91.69,1111122 
COMPS,ioos:station:USF.COMPS:C12:1,2016-12-05T02:05:00Z,27.4980,-83.7220,91.67,1111122 
COMPS,ioos:station:USF.COMPS:C12:1,2016-12-05T02:35:00Z,27.4980,-83.7220,91.94,1111122 
COMPS,ioos:station:USF.COMPS:C12:1,2016-12-05T03:05:00Z,27.4980,-83.7220,92.5,1111122 
COMPS,ioos:station:USF.COMPS:C12:1,2016-12-05T03:35:00Z,27.4980,-83.7220,93.37,1111122 
COMPS,ioos:station:USF.COMPS:C12:1,2016-12-05T04:05:00Z,27.4980,-83.7220,93.49,1111122 
COMPS,ioos:station:USF.COMPS:C12:1,2016-12-05T04:35:00Z,27.4980,-83.7220,93.71,1111122 
COMPS,ioos:station:USF.COMPS:C12:1,2016-12-05T05:05:00Z,27.4980,-83.7220,93.98,1111122 
COMPS,ioos:station:USF.COMPS:C12:1,2016-12-05T05:35:00Z,27.4980,-83.7220,94.35,1111122 
COMPS,ioos:station:USF.COMPS:C12:1,2016-12-05T06:05:00Z,27.4980,-83.7220,94.69,1111122 
COMPS,ioos:station:USF.COMPS:C12:1,2016-12-05T06:35:00Z,27.4980,-83.7220,95.0,1111122 
COMPS,ioos:station:USF.COMPS:C12:1,2016-12-05T07:05:00Z,27.4980,-83.7220,95.34,1111122 
COMPS,ioos:station:USF.COMPS:C12:1,2016-12-05T07:35:00Z,27.4980,-83.7220,95.94,1111122 
COMPS,ioos:station:USF.COMPS:C12:1,2016-12-05T08:05:00Z,27.4980,-83.7220,96.38,1111122 
COMPS,ioos:station:USF.COMPS:C12:1,2016-12-05T08:35:00Z,27.4980,-83.7220,96.89,1111122 
COMPS,ioos:station:USF.COMPS:C12:1,2016-12-05T09:05:00Z,27.4980,-83.7220,97.4,1111122 
COMPS,ioos:station:USF.COMPS:C12:1,2016-12-05T09:35:00Z,27.4980,-83.7220,97.84,1111122 
COMPS,ioos:station:USF.COMPS:C12:1,2016-12-05T10:05:00Z,27.4980,-83.7220,98.22,1111122 
COMPS,ioos:station:USF.COMPS:C12:1,2016-12-05T10:35:00Z,27.4980,-83.7220,98.52,1111122 
COMPS,ioos:station:USF.COMPS:C12:1,2016-12-05T11:05:00Z,27.4980,-83.7220,98.86,1111122 
COMPS,ioos:station:USF.COMPS:C12:1,2016-12-05T11:35:00Z,27.4980,-83.7220,99.22,1111122 
COMPS,ioos:station:USF.COMPS:C12:1,2016-12-05T12:05:00Z,27.4980,-83.7220,99.32,1111122 
COMPS,ioos:station:USF.COMPS:C12:1,2016-12-05T12:35:00Z,27.4980,-83.7220,99.28,1111122 
COMPS,ioos:station:USF.COMPS:C12:1,2016-12-05T13:05:00Z,27.4980,-83.7220,99.04,1111122 
COMPS,ioos:station:USF.COMPS:C12:1,2016-12-05T13:35:00Z,27.4980,-83.7220,98.83,1111122 
COMPS,ioos:station:USF.COMPS:C12:1,2016-12-05T14:05:00Z,27.4980,-83.7220,98.81,1111122 
COMPS,ioos:station:USF.COMPS:C12:1,2016-12-05T14:35:00Z,27.4980,-83.7220,98.67,1111122 
COMPS,ioos:station:USF.COMPS:C12:1,2016-12-05T15:05:00Z,27.4980,-83.7220,98.61,1111122 
COMPS,ioos:station:USF.COMPS:C12:1,2016-12-05T15:35:00Z,27.4980,-83.7220,98.72,1111122 
COMPS,ioos:station:USF.COMPS:C12:1,2016-12-05T16:05:00Z,27.4980,-83.7220,98.83,1111122 
COMPS,ioos:station:USF.COMPS:C12:1,2016-12-05T16:35:00Z,27.4980,-83.7220,98.76,1111122 
COMPS,ioos:station:USF.COMPS:C12:1,2016-12-05T17:05:00Z,27.4980,-83.7220,98.72,1111122 
COMPS,ioos:station:USF.COMPS:C12:1,2016-12-05T17:35:00Z,27.4980,-83.7220,98.78,1111122 
COMPS,ioos:station:USF.COMPS:C12:1,2016-12-05T18:05:00Z,27.4980,-83.7220,98.34,1111122 
COMPS,ioos:station:USF.COMPS:C12:1,2016-12-05T18:35:00Z,27.4980,-83.7220,98.01,1111122 
COMPS,ioos:station:USF.COMPS:C12:1,2016-12-05T19:05:00Z,27.4980,-83.7220,97.73,1111122 
COMPS,ioos:station:USF.COMPS:C12:1,2016-12-05T19:35:00Z,27.4980,-83.7220,97.31,1111122 
COMPS,ioos:station:USF.COMPS:C12:1,2016-12-05T20:05:00Z,27.4980,-83.7220,97.08,1111122 
COMPS,ioos:station:USF.COMPS:C12:1,2016-12-05T20:35:00Z,27.4980,-83.7220,97.35,1111122 
COMPS,ioos:station:USF.COMPS:C12:1,2016-12-05T21:05:00Z,27.4980,-83.7220,97.65,1111122 
COMPS,ioos:station:USF.COMPS:C12:1,2016-12-05T21:35:00Z,27.4980,-83.7220,97.19,1111122 
COMPS,ioos:station:USF.COMPS:C12:1,2016-12-05T22:05:00Z,27.4980,-83.7220,96.05,1111122 
COMPS,ioos:station:USF.COMPS:C12:1,2016-12-05T22:35:00Z,27.4980,-83.7220,96.01,1111122 
COMPS,ioos:station:USF.COMPS:C12:1,2016-12-05T23:05:00Z,27.4980,-83.7220,96.48,1111122 
COMPS,ioos:station:USF.COMPS:C12:1,2016-12-05T23:35:00Z,27.4980,-83.7220,96.84,1111122 
COMPS,ioos:station:USF.COMPS:C12:1,2016-12-06T00:05:00Z,27.4980,-83.7220,97.03,1111122 
COMPS,ioos:station:USF.COMPS:C12:1,2016-12-06T00:35:00Z,27.4980,-83.7220,96.35,1111122 
COMPS,ioos:station:USF.COMPS:C12:1,2016-12-06T01:05:00Z,27.4980,-83.7220,95.36,1111122 
COMPS,ioos:station:USF.COMPS:C12:1,2016-12-06T01:35:00Z,27.4980,-83.7220,95.51,1111122 
COMPS,ioos:station:USF.COMPS:C12:1,2016-12-06T02:05:00Z,27.4980,-83.7220,96.27,1111122 
COMPS,ioos:station:USF.COMPS:C12:1,2016-12-06T02:35:00Z,27.4980,-83.7220,96.93,1111122 
COMPS,ioos:station:USF.COMPS:C12:1,2016-12-06T03:05:00Z,27.4980,-83.7220,97.35,1111122 
COMPS,ioos:station:USF.COMPS:C12:1,2016-12-06T03:35:00Z,27.4980,-83.7220,97.53,1111122 
COMPS,ioos:station:USF.COMPS:C12:1,2016-12-06T04:05:00Z,27.4980,-83.7220,97.59,1111122 
COMPS,ioos:station:USF.COMPS:C12:1,2016-12-06T04:35:00Z,27.4980,-83.7220,97.71,1111122 
COMPS,ioos:station:USF.COMPS:C12:1,2016-12-06T05:05:00Z,27.4980,-83.7220,97.67,1111122 
COMPS,ioos:station:USF.COMPS:C12:1,2016-12-06T05:35:00Z,27.4980,-83.7220,97.35,1111122 
COMPS,ioos:station:USF.COMPS:C12:1,2016-12-06T06:05:00Z,27.4980,-83.7220,97.41,1111122 
COMPS,ioos:station:USF.COMPS:C12:1,2016-12-06T06:35:00Z,27.4980,-83.7220,97.56,1111122 
COMPS,ioos:station:USF.COMPS:C12:1,2016-12-06T07:05:00Z,27.4980,-83.7220,97.58,1111122 
COMPS,ioos:station:USF.COMPS:C12:1,2016-12-06T07:35:00Z,27.4980,-83.7220,97.96,1111122 
COMPS,ioos:station:USF.COMPS:C12:1,2016-12-06T08:05:00Z,27.4980,-83.7220,98.51,1111122 
COMPS,ioos:station:USF.COMPS:C12:1,2016-12-06T08:35:00Z,27.4980,-83.7220,98.96,1111122 
COMPS,ioos:station:USF.COMPS:C12:1,2016-12-06T09:05:00Z,27.4980,-83.7220,98.82,1111122 
COMPS,ioos:station:USF.COMPS:C12:1,2016-12-06T09:35:00Z,27.4980,-83.7220,98.95,1111122 
COMPS,ioos:station:USF.COMPS:C12:1,2016-12-06T10:05:00Z,27.4980,-83.7220,98.95,1111122 
COMPS,ioos:station:USF.COMPS:C12:1,2016-12-06T10:35:00Z,27.4980,-83.7220,99.12,1111122 
COMPS,ioos:station:USF.COMPS:C12:1,2016-12-06T11:05:00Z,27.4980,-83.7220,99.3,1111122 
COMPS,ioos:station:USF.COMPS:C12:1,2016-12-06T11:35:00Z,27.4980,-83.7220,99.34,1111122 
COMPS,ioos:station:USF.COMPS:C12:1,2016-12-06T12:05:00Z,27.4980,-83.7220,99.13,1111122 
COMPS,ioos:station:USF.COMPS:C12:1,2016-12-06T12:35:00Z,27.4980,-83.7220,98.96,1111122 
COMPS,ioos:station:USF.COMPS:C12:1,2016-12-06T13:05:00Z,27.4980,-83.7220,98.03,1111122 
COMPS,ioos:station:USF.COMPS:C12:1,2016-12-06T13:35:00Z,27.4980,-83.7220,97.48,1111122 
COMPS,ioos:station:USF.COMPS:C12:1,2016-12-06T14:05:00Z,27.4980,-83.7220,96.81,1111122 
COMPS,ioos:station:USF.COMPS:C12:1,2016-12-06T14:35:00Z,27.4980,-83.7220,96.65,1111122 
COMPS,ioos:station:USF.COMPS:C12:1,2016-12-06T15:05:00Z,27.4980,-83.7220,97.28,1111122 
COMPS,ioos:station:USF.COMPS:C12:1,2016-12-06T15:35:00Z,27.4980,-83.7220,97.96,1111122 